Location: Mentone
(34.5413°N, 85.5351°W)
Time: 14:20:32
(UTC-06:00)

UOSAT-12 - Visible Passes

Search period start: 25 January 2015 00:00
Search period end: 04 February 2015 00:00
Orbit: 594 x 662 km, 64.6° (Epoch: 24 January)

Date Brightness Start Highest point End Pass type
(mag) Time Alt. Az. Time Alt. Az. Time Alt. Az.
01 Feb 9.1 18:38:31 10° N 18:39:57 15° NNE 18:39:57 15° NNE visible
02 Feb 8.4 18:57:57 10° NNW 19:00:33 27° N 19:00:33 27° N visible
03 Feb 9.1 17:40:51 10° NNE 17:41:43 11° NE 17:42:50 10° NE visible
03 Feb 7.7 19:17:58 10° NNW 19:21:25 49° NNW 19:21:25 49° NNW visible
